Weather History for Adana Incirlik AFB, Turkey

Change the Weather History Date:

Friday, January 3, 2014

  Actual Average Record
Temperature  
Mean Temperature 54 °F -  
Max Temperature 63 °F 59 °F 64 °F (1997)
Min Temperature 46 °F 42 °F 33 °F (1998)
Degree Days  
Heating Degree Days 10    
Growing Degree Days 4 (Base 50)    
Moisture  
Dew Point 38 °F    
Average Humidity 55    
Maximum Humidity 76    
Minimum Humidity 22    
Precipitation  
Precipitation 0.00 in - - ()
Sea Level Pressure  
Sea Level Pressure 30.20 in    
Wind  
Wind Speed 5 mph ()    
Max Wind Speed 12 mph    
Max Gust Speed -    
Visibility 6.8 miles    
Events      
Averages and records for this station are not official NWS values.
T = Trace of Precipitation, MM = Missing Value Source: Averaged Metar Reports

Daily Weather History Graph

Daily Weather History Graph

Search for Another Location

Airport:

Trip Planner

Search our weather history database for the weather conditions in past years. The results will help you decide how hot, cold, wet, or windy it might be!

Date:

Astronomy

Jan. 03, 2014 Rise Set
Actual Time 6:51 AM EET 4:33 PM EET
Civil Twilight 6:22 AM EET 5:02 PM EET
Nautical Twilight 5:50 AM EET 5:35 PM EET
Astronomical Twilight 5:19 AM EET 6:06 PM EET
Moon 8:06 AM EET (1/3) 7:13 PM EET (1/3)
Length of Visible Light 10h 39m
Length of Day
9h 41m
Waxing Crescent, 6% of the Moon is Illuminated
Jan 3
Waxing Crescent
Jan 8
First Quarter
Jan 16
Full
Jan 24
Last Quarter
Jan 30
New

Hourly Weather History & Observations

Time (EET) Temp. Windchill Dew Point Humidity Pressure Visibility Wind Dir Wind Speed Gust Speed Precip Events Conditions
12:20 AM 50.0 °F - 42.8 °F 76% 30.21 in - WNW 5.8 mph - N/A   Clear
12:50 AM 50.0 °F - 42.8 °F 76% 30.21 in - ENE 1.2 mph - N/A   Clear
1:20 AM 50.0 °F - 42.8 °F 76% 30.21 in - NNE 2.3 mph - N/A   Clear
1:50 AM 50.0 °F - 41.0 °F 71% 30.21 in - NNE 6.9 mph - N/A   Clear
2:00 AM 50 °F - 41 °F 63% 30.21 in 6 mi NNE 6.9 mph - -   Mostly Cloudy
2:20 AM 51.8 °F - 41.0 °F 67% 30.21 in - NNE 8.1 mph - N/A   Clear
2:50 AM 51.8 °F - 41.0 °F 67% 30.21 in - NE 8.1 mph - N/A   Clear
3:20 AM 50.0 °F - 41.0 °F 71% 30.21 in - NNE 6.9 mph - N/A   Clear
3:50 AM 51.8 °F - 39.2 °F 62% 30.21 in - NE 8.1 mph - N/A   Clear
4:20 AM 51.8 °F - 39.2 °F 62% 30.21 in - NE 6.9 mph - N/A   Clear
4:50 AM 50.0 °F - 39.2 °F 66% 30.18 in - NE 6.9 mph - N/A   Clear
5:00 AM 50 °F - 23 °F 22% 30.21 in 6 mi NE 6.9 mph - -   Mostly Cloudy
5:20 AM 50.0 °F - 39.2 °F 66% 30.18 in - NNE 6.9 mph - N/A   Clear
5:50 AM 50.0 °F - 39.2 °F 66% 30.18 in - NNE 3.5 mph - N/A   Clear
6:20 AM 50.0 °F - 39.2 °F 66% 30.21 in - NNE 5.8 mph - N/A   Clear
6:50 AM 50.0 °F - 37.4 °F 62% 30.21 in - NNE 2.3 mph - N/A   Clear
7:20 AM 50.0 °F - 37.4 °F 62% 30.21 in - North 2.3 mph - N/A   Clear
7:50 AM 51.8 °F - 37.4 °F 58% 30.21 in - North 2.3 mph - N/A   Clear
8:00 AM 52 °F - 38 °F 48% 30.24 in 12 mi North 2.3 mph - -   Mostly Cloudy
8:20 AM 53.6 °F - 37.4 °F 54% 30.24 in - ENE 3.5 mph - N/A   Clear
8:50 AM 55.4 °F - 35.6 °F 47% 30.24 in - ENE 3.5 mph - N/A   Clear
9:20 AM 55.4 °F - 35.6 °F 47% 30.24 in - ENE 8.1 mph - N/A   Clear
9:50 AM 57.2 °F - 35.6 °F 44% 30.24 in - East 4.6 mph - N/A   Clear
10:20 AM 59.0 °F - 35.6 °F 42% 30.24 in - NE 9.2 mph - N/A   Clear
10:50 AM 59.0 °F - 35.6 °F 42% 30.24 in - East 10.4 mph - N/A   Clear
11:00 AM 59 °F - 36 °F 31% 30.24 in 6 mi ENE 10.4 mph - -   Mostly Cloudy
11:20 AM 60.8 °F - 37.4 °F 42% 30.21 in - East 11.5 mph - N/A   Clear
11:50 AM 60.8 °F - 37.4 °F 42% 30.21 in - ENE 8.1 mph - N/A   Clear
12:20 PM 60.8 °F - 37.4 °F 42% 30.18 in - East 5.8 mph - N/A   Clear
12:50 PM 62.6 °F - 37.4 °F 39% 30.18 in - ENE 9.2 mph - N/A   Clear
1:20 PM 62.6 °F - 37.4 °F 39% 30.18 in - East 3.5 mph - N/A   Clear
1:50 PM 62.6 °F - 37.4 °F 39% 30.18 in - NE 8.1 mph - N/A   Clear
2:00 PM 62 °F - 38 °F 29% 30.18 in 6 mi NE 8.1 mph - -   Mostly Cloudy
2:20 PM 62.6 °F - 37.4 °F 39% 30.15 in - East 4.6 mph - N/A   Clear
2:50 PM 60.8 °F - 37.4 °F 42% 30.18 in - East 2.3 mph - N/A   Clear
3:20 PM 62.6 °F - 37.4 °F 39% 30.18 in - East 4.6 mph - N/A   Clear
3:50 PM 62.6 °F - 37.4 °F 39% 30.18 in - East 3.5 mph - N/A   Clear
4:20 PM 60.8 °F - 37.4 °F 42% 30.18 in - ESE 2.3 mph - N/A   Clear
4:50 PM 55.4 °F - 39.2 °F 54% 30.18 in - Calm Calm - N/A   Clear
5:00 PM 56 °F - 42 °F 48% 30.18 in 6 mi Calm Calm - -   Partly Cloudy
5:20 PM 51.8 °F - 39.2 °F 62% 30.18 in - NE 6.9 mph - N/A   Clear
5:50 PM 51.8 °F - 41.0 °F 67% 30.18 in - NE 6.9 mph - N/A   Clear
6:20 PM 48.2 °F - 41.0 °F 76% 30.18 in - NE 6.9 mph - N/A   Clear
6:50 PM 51.8 °F - 37.4 °F 58% 30.18 in - ENE 9.2 mph - N/A   Clear
7:20 PM 50.0 °F - 37.4 °F 62% 30.18 in - NE 6.9 mph - N/A   Clear
7:50 PM 50.0 °F - 37.4 °F 62% 30.18 in - ENE 6.9 mph - N/A   Clear
8:00 PM 51 °F - 37 °F 48% 30.20 in 6 mi ENE 6.9 mph - -   Partly Cloudy
8:20 PM 51.8 °F - 37.4 °F 58% 30.18 in - ENE 4.6 mph - N/A   Clear
8:50 PM 50.0 °F - 37.4 °F 62% 30.18 in - ENE 4.6 mph - N/A   Clear
9:20 PM 50.0 °F - 39.2 °F 66% 30.18 in - ENE 10.4 mph - N/A   Clear
9:50 PM 48.2 °F - 37.4 °F 66% 30.18 in - NE 10.4 mph - N/A   Clear
10:20 PM 48.2 °F - 37.4 °F 66% 30.18 in - NE 10.4 mph - N/A   Clear
10:50 PM 46.4 °F 41.9 °F 37.4 °F 71% 30.18 in - NE 9.2 mph - N/A   Clear
11:00 PM 47 °F - 37 °F 58% 30.20 in 6 mi NE 9.2 mph - -  
11:20 PM 48.2 °F - 35.6 °F 62% 30.18 in - NE 10.4 mph - N/A   Clear
11:50 PM 48.2 °F - 35.6 °F 62% 30.18 in - NE 10.4 mph - N/A   Clear